Flag for Canada Weather past 2 weeks in Hamilton, Ontario, Canada

Now
28 °F

Overcast.


Feels Like: 22 °F
Forecast: 29 / 38 °F
Wind: 6 mph from East

Location: Hamilton Airport

Current Time: Dec 22, 2014 at 12:37:08 AM

Latest Report: Dec 22, 2014 at 12:00 AM


Visibility: 15 mi

Pressure: 30.29 "Hg

Humidity: 80%

Dew point: 23 °F

Location of HamiltonLocation

Historic Weather in Hamilton — Graph

°F

Hamilton temperature yesterday

Maximum temperature yesterday: 32 °F (at 12:00 PM)
Minimum temperature yesterday: 21 °F (at 6:00 AM)
Average temperature yesterday: 27 °F

Past Weeks' High & Low Weather Summary

 TemperatureHumidityPressure
High43 °F (Dec 16, 9:00 PM)100% (Dec 9, 5:00 PM)30.78 "Hg (Dec 9, 5:00 PM)
Low16 °F (Dec 20, 7:00 AM)47% (Dec 11, 6:00 PM)29.71 "Hg (Dec 16, 1:54 PM)
Average31 °F83%30.13 "Hg
* Reported Dec 6 11:00 PM — Dec 21 11:00 PM, Hamilton, Weather by CustomWeather, © 2014

Note: Actual official high and low records may vary slightly from our data, if they occured in-between our weather recording intervals... More about our weather records

Advertising

Hamilton weather history for previous 24 hours

 ConditionsComfort  
Time TempWeatherWind HumidityBarometerVisibility
11:00 PM
Dec 21
27 °FOvercast.6 mph80%30.29 "Hg12 mi
10:00 PM27 °FPassing clouds.6 mph80%30.30 "Hg12 mi
9:00 PM27 °FOvercast.3 mph74%30.31 "Hg12 mi
8:00 PM27 °FPassing clouds.No wind80%30.32 "Hg12 mi
7:00 PM27 °FPassing clouds.5 mph74%30.32 "Hg10 mi
6:00 PM28 °FPassing clouds.3 mph69%30.32 "Hg10 mi
5:00 PM28 °FPassing clouds.3 mph69%30.31 "Hg8 mi
4:00 PM30 °FPartly sunny.3 mph64%30.31 "Hg8 mi
3:00 PM30 °FPartly sunny.3 mph69%30.30 "Hg8 mi
2:00 PM30 °FPartly sunny.6 mph69%30.30 "Hg8 mi
1:00 PM32 °FBroken clouds.8 mph69%30.32 "Hg8 mi
12:00 PM32 °FPartly sunny.6 mph69%30.32 "Hg8 mi
11:00 AM30 °FPartly sunny.9 mph75%30.35 "Hg15 mi
10:00 AM28 °FBroken clouds.7 mph80%30.34 "Hg15 mi
9:00 AM23 °FPartly sunny.3 mph93%30.35 "Hg15 mi
8:00 AM21 °FPartly sunny.6 mph93%30.34 "Hg15 mi
7:00 AM21 °FPassing clouds.5 mph93%30.33 "Hg15 mi
6:00 AM21 °FPassing clouds.3 mph93%30.32 "Hg15 mi
5:00 AM23 °FPassing clouds.5 mph86%30.30 "Hg15 mi
4:00 AM23 °FPassing clouds.6 mph86%30.31 "Hg15 mi
3:00 AM25 °FPassing clouds.5 mph86%30.30 "Hg15 mi
2:00 AM27 °FPassing clouds.5 mph80%30.29 "Hg15 mi
1:00 AM27 °FOvercast.5 mph80%30.28 "Hg15 mi
12:00 AM27 °FOvercast.5 mph80%30.29 "Hg15 mi
Weather by CustomWeather, © 2014

See weather overviewHow to use our weather pages